Location: A�t Lahcen
(32.8243°N, 5.4246°W)
Time: 02:05:52
(UTC+00:00)

Cosmos 2150 Rocket - Pass Details

Date: 27 January 2021
Orbit: 748 x 808 km, 74.0° (Epoch: 26 February)

Event Time Altitude Azimuth Distance (km) Brightness Sun altitude
Exits shadow 06:14:21 - 340° (NNW) 3,276 6.9 -13.9°
Reaches altitude 10° 06:16:42 10° 339° (NNW) 2,362 6.2 -13.5°
Maximum altitude 06:22:04 72° 256° (WSW) 841 4.0 -12.4°
Drops below altitude 10° 06:27:28 10° 172° (S) 2,376 6.8 -11.3°
Sets 06:29:52 0° 170° (S) 3,306 7.6 -10.8°
